******** Week 322 almanac for PRN-01 ******** ID: 01 Health: 000 Eccentricity: 0.5660057068E-003 Time of Applicability(s): 319488.0000 Orbital Inclination(rad): 0.9591778135 Rate of Right Ascen(r/s): -0.8251772291E-008 SQRT(A) (m 1/2): 5153.666992 Right Ascen at Week(rad): 0.1616687669E+001 Argument of Perigee(rad): 0.233866531 Mean Anom(rad): -0.2793267412E+001 Af0(s): 0.2880096436E-003 Af1(s/s): 0.1091393642E-010 week: 322 ******** Week 322 almanac for PRN-02 ******** ID: 02 Health: 000 Eccentricity: 0.1640319824E-001 Time of Applicability(s): 319488.0000 Orbital Inclination(rad): 0.9653077445 Rate of Right Ascen(r/s): -0.8126052768E-008 SQRT(A) (m 1/2): 5153.646973 Right Ascen at Week(rad): 0.1452729990E+001 Argument of Perigee(rad): -0.975947714 Mean Anom(rad): -0.1052250525E+001 Af0(s): -0.1478195190E-003 Af1(s/s): 0.7275957614E-011 week: 322 ******** Week 322 almanac for PRN-03 ******** ID: 03 Health: 000 Eccentricity: 0.6329059601E-002 Time of Applicability(s): 319488.0000 Orbital Inclination(rad): 0.9900971137 Rate of Right Ascen(r/s): -0.7600316584E-008 SQRT(A) (m 1/2): 5153.727539 Right Ascen at Week(rad): 0.2595752030E+001 Argument of Perigee(rad): 1.176378632 Mean Anom(rad): 0.1605240113E+001 Af0(s): 0.6933212280E-003 Af1(s/s): 0.0000000000E+000 week: 322 ******** Week 322 almanac for PRN-04 ******** ID: 04 Health: 000 Eccentricity: 0.3295898438E-002 Time of Applicability(s): 319488.0000 Orbital Inclination(rad): 0.9681839585 Rate of Right Ascen(r/s): -0.7497455156E-008 SQRT(A) (m 1/2): 5153.569336 Right Ascen at Week(rad): -0.2613630621E+001 Argument of Perigee(rad): -2.909582554 Mean Anom(rad): -0.1740019200E+001 Af0(s): 0.5779266357E-003 Af1(s/s): 0.3637978807E-011 week: 322 ******** Week 322 almanac for PRN-05 ******** ID: 05 Health: 000 Eccentricity: 0.5793571472E-002 Time of Applicability(s): 319488.0000 Orbital Inclination(rad): 0.9768245847 Rate of Right Ascen(r/s): -0.7771752296E-008 SQRT(A) (m 1/2): 5153.529785 Right Ascen at Week(rad): 0.2539485345E+001 Argument of Perigee(rad): 1.370444055 Mean Anom(rad): -0.1134845803E+001 Af0(s): -0.2126693726E-003 Af1(s/s): 0.0000000000E+000 week: 322 ******** Week 322 almanac for PRN-06 ******** ID: 06 Health: 000 Eccentricity: 0.3334045410E-002 Time of Applicability(s): 319488.0000 Orbital Inclination(rad): 0.9883773775 Rate of Right Ascen(r/s): -0.7943188009E-008 SQRT(A) (m 1/2): 5153.540039 Right Ascen at Week(rad): 0.1559733764E+001 Argument of Perigee(rad): -0.640998365 Mean Anom(rad): 0.2870318862E+001 Af0(s): -0.4014968872E-003 Af1(s/s): -0.1818989404E-010 week: 322 ******** Week 322 almanac for PRN-07 ******** ID: 07 Health: 000 Eccentricity: 0.1973724365E-001 Time of Applicability(s): 319488.0000 Orbital Inclination(rad): 0.9500098814 Rate of Right Ascen(r/s): -0.7931758961E-008 SQRT(A) (m 1/2): 5153.648438 Right Ascen at Week(rad): -0.1603006553E+001 Argument of Perigee(rad): -2.041492864 Mean Anom(rad): 0.2011873477E+001 Af0(s): -0.3623962402E-004 Af1(s/s): -0.3637978807E-011 week: 322 ******** Week 322 almanac for PRN-08 ******** ID: 08 Health: 000 Eccentricity: 0.1048803329E-001 Time of Applicability(s): 319488.0000 Orbital Inclination(rad): 0.9477568471 Rate of Right Ascen(r/s): -0.7794610391E-008 SQRT(A) (m 1/2): 5153.527832 Right Ascen at Week(rad): 0.4496709634E+000 Argument of Perigee(rad): 0.456384002 Mean Anom(rad): -0.1503832972E+001 Af0(s): 0.5254745483E-003 Af1(s/s): 0.3637978807E-011 week: 322 ******** Week 322 almanac for PRN-09 ******** ID: 09 Health: 000 Eccentricity: 0.3125190735E-002 Time of Applicability(s): 319488.0000 Orbital Inclination(rad): 0.9621618855 Rate of Right Ascen(r/s): -0.7566029441E-008 SQRT(A) (m 1/2): 5153.651367 Right Ascen at Week(rad): -0.2675965069E+001 Argument of Perigee(rad): 1.997393538 Mean Anom(rad): -0.8701573431E+000 Af0(s): 0.6818771362E-003 Af1(s/s): 0.7275957614E-011 week: 322 ******** Week 322 almanac for PRN-10 ******** ID: 10 Health: 000 Eccentricity: 0.1017379761E-001 Time of Applicability(s): 319488.0000 Orbital Inclination(rad): 0.9896896501 Rate of Right Ascen(r/s): -0.7611745631E-008 SQRT(A) (m 1/2): 5153.612305 Right Ascen at Week(rad): 0.2593239463E+001 Argument of Perigee(rad): -2.315248513 Mean Anom(rad): 0.5583656362E+000 Af0(s): -0.4510879517E-003 Af1(s/s): -0.1091393642E-010 week: 322 ******** Week 322 almanac for PRN-11 ******** ID: 11 Health: 000 Eccentricity: 0.1809120178E-002 Time of Applicability(s): 319488.0000 Orbital Inclination(rad): 0.9651459575 Rate of Right Ascen(r/s): -0.8171768958E-008 SQRT(A) (m 1/2): 5153.621582 Right Ascen at Week(rad): 0.1584352358E+001 Argument of Perigee(rad): -2.425273810 Mean Anom(rad): -0.2168270608E+001 Af0(s): -0.6961822510E-003 Af1(s/s): 0.7275957614E-011 week: 322 ******** Week 322 almanac for PRN-12 ******** ID: 12 Health: 000 Eccentricity: 0.8752346039E-002 Time of Applicability(s): 319488.0000 Orbital Inclination(rad): 0.9603223070 Rate of Right Ascen(r/s): -0.7657461821E-008 SQRT(A) (m 1/2): 5153.625488 Right Ascen at Week(rad): -0.4860741700E+000 Argument of Perigee(rad): 1.510434033 Mean Anom(rad): 0.1295306710E+001 Af0(s): -0.5884170532E-003 Af1(s/s): 0.0000000000E+000 week: 322 ******** Week 322 almanac for PRN-13 ******** ID: 13 Health: 000 Eccentricity: 0.9274005890E-002 Time of Applicability(s): 319488.0000 Orbital Inclination(rad): 0.9740981735 Rate of Right Ascen(r/s): -0.7428880871E-008 SQRT(A) (m 1/2): 5153.638672 Right Ascen at Week(rad): -0.2504552079E+001 Argument of Perigee(rad): 0.958682191 Mean Anom(rad): -0.1677835304E+001 Af0(s): 0.7009506226E-003 Af1(s/s): 0.0000000000E+000 week: 322 ******** Week 322 almanac for PRN-14 ******** ID: 14 Health: 000 Eccentricity: 0.5915164948E-002 Time of Applicability(s): 319488.0000 Orbital Inclination(rad): 0.9436043132 Rate of Right Ascen(r/s): -0.7783181344E-008 SQRT(A) (m 1/2): 5153.658691 Right Ascen at Week(rad): -0.5364888082E+000 Argument of Perigee(rad): -2.794710387 Mean Anom(rad): 0.1153003776E+001 Af0(s): 0.6580352783E-003 Af1(s/s): 0.3637978807E-011 week: 322 ******** Week 322 almanac for PRN-15 ******** ID: 15 Health: 000 Eccentricity: 0.1630735397E-001 Time of Applicability(s): 319488.0000 Orbital Inclination(rad): 0.9397154322 Rate of Right Ascen(r/s): -0.7726036106E-008 SQRT(A) (m 1/2): 5153.545898 Right Ascen at Week(rad): -0.2813442480E+001 Argument of Perigee(rad): 1.423277259 Mean Anom(rad): -0.2467132086E+001 Af0(s): 0.3061294556E-003 Af1(s/s): 0.3637978807E-011 week: 322 ******** Week 322 almanac for PRN-16 ******** ID: 16 Health: 000 Eccentricity: 0.1444482803E-001 Time of Applicability(s): 319488.0000 Orbital Inclination(rad): 0.9596092456 Rate of Right Ascen(r/s): -0.7634603726E-008 SQRT(A) (m 1/2): 5153.698730 Right Ascen at Week(rad): -0.4687150203E+000 Argument of Perigee(rad): 0.885438728 Mean Anom(rad): -0.4468868781E+000 Af0(s): 0.3623962402E-004 Af1(s/s): 0.7275957614E-011 week: 322 ******** Week 322 almanac for PRN-17 ******** ID: 17 Health: 000 Eccentricity: 0.1305675507E-001 Time of Applicability(s): 319488.0000 Orbital Inclination(rad): 0.9634861423 Rate of Right Ascen(r/s): -0.7691748964E-008 SQRT(A) (m 1/2): 5153.658691 Right Ascen at Week(rad): 0.5502598061E+000 Argument of Perigee(rad): -1.211242990 Mean Anom(rad): -0.1432025744E+001 Af0(s): 0.2393722534E-003 Af1(s/s): -0.1818989404E-010 week: 322 ******** Week 322 almanac for PRN-18 ******** ID: 18 Health: 000 Eccentricity: 0.5181789398E-002 Time of Applicability(s): 319488.0000 Orbital Inclination(rad): 0.9733072146 Rate of Right Ascen(r/s): -0.8091765626E-008 SQRT(A) (m 1/2): 5153.641602 Right Ascen at Week(rad): 0.1558420742E+001 Argument of Perigee(rad): -2.958305543 Mean Anom(rad): 0.2838301882E+001 Af0(s): -0.6122589111E-003 Af1(s/s): 0.7275957614E-011 week: 322 ******** Week 322 almanac for PRN-19 ******** ID: 19 Health: 000 Eccentricity: 0.1064252853E-001 Time of Applicability(s): 319488.0000 Orbital Inclination(rad): 0.9626831993 Rate of Right Ascen(r/s): -0.7703178011E-008 SQRT(A) (m 1/2): 5153.598633 Right Ascen at Week(rad): 0.5943362873E+000 Argument of Perigee(rad): 2.789204385 Mean Anom(rad): 0.4207792442E+000 Af0(s): 0.6370544434E-003 Af1(s/s): 0.3637978807E-011 week: 322 ******** Week 322 almanac for PRN-20 ******** ID: 20 Health: 000 Eccentricity: 0.3458023071E-002 Time of Applicability(s): 319488.0000 Orbital Inclination(rad): 0.9587823341 Rate of Right Ascen(r/s): -0.8023191341E-008 SQRT(A) (m 1/2): 5153.740234 Right Ascen at Week(rad): 0.2404046002E+001 Argument of Perigee(rad): -2.260476486 Mean Anom(rad): 0.3053273785E+001 Af0(s): 0.3643035889E-003 Af1(s/s): 0.0000000000E+000 week: 322 ******** Week 322 almanac for PRN-21 ******** ID: 21 Health: 063 Eccentricity: 0.1821517944E-003 Time of Applicability(s): 319488.0000 Orbital Inclination(rad): 0.9597890090 Rate of Right Ascen(r/s): -0.7897471819E-008 SQRT(A) (m 1/2): 5153.628418 Right Ascen at Week(rad): 0.2609716274E+001 Argument of Perigee(rad): 0.939575591 Mean Anom(rad): -0.1999508004E+000 Af0(s): 0.0000000000E+000 Af1(s/s): 0.0000000000E+000 week: 322 ******** Week 322 almanac for PRN-22 ******** ID: 22 Health: 000 Eccentricity: 0.1310014725E-001 Time of Applicability(s): 319488.0000 Orbital Inclination(rad): 0.9590100343 Rate of Right Ascen(r/s): -0.7600316584E-008 SQRT(A) (m 1/2): 5153.602051 Right Ascen at Week(rad): -0.4653998841E+000 Argument of Perigee(rad): -1.060852202 Mean Anom(rad): -0.9092349044E+000 Af0(s): -0.1029968262E-003 Af1(s/s): 0.0000000000E+000 week: 322 ******** Week 322 almanac for PRN-23 ******** ID: 23 Health: 000 Eccentricity: 0.5263328552E-002 Time of Applicability(s): 319488.0000 Orbital Inclination(rad): 0.9847461573 Rate of Right Ascen(r/s): -0.7668890869E-008 SQRT(A) (m 1/2): 5153.612305 Right Ascen at Week(rad): 0.2562422777E+001 Argument of Perigee(rad): -2.848577606 Mean Anom(rad): 0.1752039003E+001 Af0(s): 0.4930496216E-003 Af1(s/s): 0.7275957614E-011 week: 322 ******** Week 322 almanac for PRN-24 ******** ID: 24 Health: 000 Eccentricity: 0.1676940918E-001 Time of Applicability(s): 319488.0000 Orbital Inclination(rad): 0.9338910989 Rate of Right Ascen(r/s): -0.8114623721E-008 SQRT(A) (m 1/2): 5153.604492 Right Ascen at Week(rad): -0.1706821774E+001 Argument of Perigee(rad): 1.065341044 Mean Anom(rad): 0.2985877874E+001 Af0(s): -0.3833770752E-003 Af1(s/s): 0.7275957614E-011 week: 322 ******** Week 322 almanac for PRN-25 ******** ID: 25 Health: 000 Eccentricity: 0.1226377487E-001 Time of Applicability(s): 319488.0000 Orbital Inclination(rad): 0.9484339559 Rate of Right Ascen(r/s): -0.7794610391E-008 SQRT(A) (m 1/2): 5153.562500 Right Ascen at Week(rad): -0.5769086027E+000 Argument of Perigee(rad): 1.125009376 Mean Anom(rad): 0.1226546470E+001 Af0(s): 0.4844665527E-003 Af1(s/s): 0.0000000000E+000 week: 322 ******** Week 322 almanac for PRN-26 ******** ID: 26 Health: 000 Eccentricity: 0.1002693176E-001 Time of Applicability(s): 319488.0000 Orbital Inclination(rad): 0.9291333616 Rate of Right Ascen(r/s): -0.7988904198E-008 SQRT(A) (m 1/2): 5153.520508 Right Ascen at Week(rad): -0.6464500638E+000 Argument of Perigee(rad): 0.631929303 Mean Anom(rad): 0.3700170635E+000 Af0(s): -0.2765655518E-003 Af1(s/s): -0.1091393642E-010 week: 322 ******** Week 322 almanac for PRN-27 ******** ID: 27 Health: 000 Eccentricity: 0.1345634460E-001 Time of Applicability(s): 319488.0000 Orbital Inclination(rad): 0.9568229133 Rate of Right Ascen(r/s): -0.7726036106E-008 SQRT(A) (m 1/2): 5153.652344 Right Ascen at Week(rad): 0.4793974587E+000 Argument of Perigee(rad): 0.849325015 Mean Anom(rad): -0.1371278082E+001 Af0(s): -0.2479553223E-004 Af1(s/s): 0.0000000000E+000 week: 322 ******** Week 322 almanac for PRN-28 ******** ID: 28 Health: 000 Eccentricity: 0.2932548523E-003 Time of Applicability(s): 319488.0000 Orbital Inclination(rad): 0.9610293762 Rate of Right Ascen(r/s): -0.7817468486E-008 SQRT(A) (m 1/2): 5153.559570 Right Ascen at Week(rad): -0.1631757083E+001 Argument of Perigee(rad): 0.137016392 Mean Anom(rad): 0.2229465806E+001 Af0(s): -0.6217956543E-003 Af1(s/s): -0.3637978807E-011 week: 322 ******** Week 322 almanac for PRN-29 ******** ID: 29 Health: 000 Eccentricity: 0.3304004669E-002 Time of Applicability(s): 319488.0000 Orbital Inclination(rad): 0.9660507665 Rate of Right Ascen(r/s): -0.7668890869E-008 SQRT(A) (m 1/2): 5153.597168 Right Ascen at Week(rad): 0.5662669855E+000 Argument of Perigee(rad): 2.686514558 Mean Anom(rad): -0.1511007778E+001 Af0(s): -0.4959106445E-003 Af1(s/s): 0.3637978807E-011 week: 322 ******** Week 322 almanac for PRN-30 ******** ID: 30 Health: 000 Eccentricity: 0.7708549500E-002 Time of Applicability(s): 319488.0000 Orbital Inclination(rad): 0.9352153558 Rate of Right Ascen(r/s): -0.8091765626E-008 SQRT(A) (m 1/2): 5153.600586 Right Ascen at Week(rad): -0.1608082996E+001 Argument of Perigee(rad): -2.362201208 Mean Anom(rad): 0.1820992114E+001 Af0(s): -0.1211166382E-003 Af1(s/s): 0.1091393642E-010 week: 322 ******** Week 322 almanac for PRN-31 ******** ID: 31 Health: 000 Eccentricity: 0.1057338715E-001 Time of Applicability(s): 319488.0000 Orbital Inclination(rad): 0.9538688018 Rate of Right Ascen(r/s): -0.7908900866E-008 SQRT(A) (m 1/2): 5153.610840 Right Ascen at Week(rad): -0.1579902091E+001 Argument of Perigee(rad): 0.826283096 Mean Anom(rad): 0.1086553496E+001 Af0(s): -0.2040863037E-003 Af1(s/s): 0.0000000000E+000 week: 322 ******** Week 322 almanac for PRN-32 ******** ID: 32 Health: 000 Eccentricity: 0.8581638336E-002 Time of Applicability(s): 319488.0000 Orbital Inclination(rad): 0.9653496893 Rate of Right Ascen(r/s): -0.7520313251E-008 SQRT(A) (m 1/2): 5153.573242 Right Ascen at Week(rad): -0.2659910702E+001 Argument of Perigee(rad): -2.057707520 Mean Anom(rad): -0.7402292452E+000 Af0(s): -0.4262924194E-003 Af1(s/s): 0.1091393642E-010 week: 322